• In Hungary
  • List of Countries
  • For 7 days
  • Water Temperature
  • Satellite Maps
  • Weather Map
  • News
  • Weather Widgets
  • user-avatar
    Login

    Hourly Weather Belovezhskiy

    Today, 23 October, Tuesday

    Time Temperature Precipitation Wind Pressure Humidity
    00:00 +6°C° 0 mm 4 mps 749 mmHg 86%
    01:00 +5°C° 0 mm 4 mps 749 mmHg 89%
    02:00 +5°C° 0 mm 4 mps 749 mmHg 92%
    03:00 +4°C° 0 mm 4 mps 748 mmHg 93%
    04:00 +4°C° 0 mm 4 mps 748 mmHg 93%
    05:00 +3°C° 0 mm 4 mps 748 mmHg 94%
    06:00 +3°C° 0 mm 4 mps 747 mmHg 93%
    07:00 +3°C° 0 mm 4 mps 747 mmHg 92%
    08:00 +3°C° 0 mm 4 mps 746 mmHg 90%
    09:00 +3°C° 0.1 mm 5 mps 745 mmHg 84%
    10:00 +4°C° 0.1 mm 6 mps 744 mmHg 78%
    11:00 +5°C° 0.1 mm 7 mps 743 mmHg 72%
    12:00 +5°C° 0.8 mm 8 mps 742 mmHg 73%
    13:00 +5°C° 0.8 mm 9 mps 740 mmHg 74%
    14:00 +3°C° 0.8 mm 9 mps 739 mmHg 75%
    15:00 +3°C° 1.2 mm 9 mps 738 mmHg 77%
    16:00 +3°C° 1.2 mm 10 mps 736 mmHg 79%
    17:00 +3°C° 1.2 mm 10 mps 735 mmHg 80%
    18:00 +5°C° 0.8 mm 9 mps 734 mmHg 82%
    19:00 +5°C° 0.8 mm 9 mps 733 mmHg 83%
    20:00 +6°C° 0.8 mm 9 mps 732 mmHg 85%
    21:00 +6°C° 0.5 mm 8 mps 731 mmHg 84%
    22:00 +6°C° 0.5 mm 8 mps 731 mmHg 82%
    23:00 +6°C° 0.5 mm 7 mps 730 mmHg 81%

    Tomorrow, 24 October, Wednesday

    Time Temperature Precipitation Wind Pressure Humidity
    00:00 +5°C° 0 mm 7 mps 729 mmHg 81%
    01:00 +5°C° 0 mm 7 mps 729 mmHg 82%
    02:00 +4°C° 0 mm 7 mps 728 mmHg 82%
    03:00 +4°C° 0.1 mm 7 mps 727 mmHg 81%
    04:00 +4°C° 0.1 mm 7 mps 726 mmHg 80%
    05:00 +4°C° 0.1 mm 7 mps 726 mmHg 79%
    06:00 +4°C° 0.6 mm 8 mps 726 mmHg 77%
    07:00 +2°C° 0.6 mm 9 mps 726 mmHg 75%
    08:00 +2°C° 0.6 mm 10 mps 727 mmHg 73%
    09:00 +2°C° 0.3 mm 10 mps 727 mmHg 69%
    10:00 +2°C° 0.3 mm 10 mps 728 mmHg 65%
    11:00 +3°C° 0.3 mm 10 mps 729 mmHg 62%
    12:00 +3°C° 0.4 mm 10 mps 729 mmHg 64%
    13:00 +3°C° 0.4 mm 11 mps 728 mmHg 66%
    14:00 +3°C° 0.4 mm 11 mps 728 mmHg 68%
    15:00 +3°C° 1 mm 12 mps 729 mmHg 69%
    16:00 +3°C° 1 mm 12 mps 729 mmHg 71%
    17:00 +4°C° 1 mm 13 mps 729 mmHg 73%
    18:00 +4°C° 0.8 mm 13 mps 730 mmHg 74%
    19:00 +4°C° 0.8 mm 12 mps 730 mmHg 74%
    20:00 +4°C° 0.8 mm 12 mps 731 mmHg 75%
    21:00 +4°C° 0.6 mm 11 mps 732 mmHg 75%
    22:00 +5°C° 0.6 mm 10 mps 733 mmHg 76%
    23:00 +3°C° 0.6 mm 10 mps 735 mmHg 76%

    Day after tomorrow, 25 October, Thursday

    Time Temperature Precipitation Wind Pressure Humidity
    00:00 +3°C° 0 mm 9 mps 735 mmHg 76%
    01:00 +4°C° 0 mm 8 mps 736 mmHg 76%
    02:00 +2°C° 0 mm 8 mps 737 mmHg 76%
    03:00 +3°C° 0 mm 7 mps 737 mmHg 77%
    04:00 +2°C° 0 mm 7 mps 737 mmHg 78%
    05:00 +2°C° 0 mm 7 mps 738 mmHg 79%
    06:00 +2°C° 0 mm 6 mps 738 mmHg 79%
    07:00 +2°C° 0 mm 6 mps 738 mmHg 79%
    08:00 +2°C° 0 mm 6 mps 738 mmHg 78%
    09:00 +2°C° 0.1 mm 6 mps 737 mmHg 76%
    10:00 +3°C° 0.1 mm 6 mps 737 mmHg 74%
    11:00 +3°C° 0.1 mm 6 mps 736 mmHg 72%
    12:00 +3°C° 0.9 mm 6 mps 735 mmHg 76%
    13:00 +3°C° 0.9 mm 6 mps 734 mmHg 80%
    14:00 +3°C° 0.9 mm 6 mps 733 mmHg 84%
    15:00 +4°C° 0.6 mm 7 mps 733 mmHg 82%
    16:00 +5°C° 0.6 mm 7 mps 732 mmHg 80%
    17:00 +6°C° 0.6 mm 7 mps 732 mmHg 78%
    18:00 +5°C° 0.1 mm 7 mps 733 mmHg 79%
    19:00 +5°C° 0.1 mm 7 mps 734 mmHg 81%
    20:00 +4°C° 0.1 mm 7 mps 735 mmHg 82%
    21:00 +4°C° 0 mm 6 mps 735 mmHg 84%
    22:00 +5°C° 0 mm 5 mps 736 mmHg 86%
    23:00 +4°C° 0 mm 4 mps 737 mmHg 88%

    26 October, Friday

    Time Temperature Precipitation Wind Pressure Humidity
    00:00 +4°C° 0 mm 4 mps 737 mmHg 89%
    01:00 +4°C° 0 mm 4 mps 738 mmHg 91%
    02:00 +3°C° 0 mm 4 mps 738 mmHg 92%
    03:00 +3°C° 0 mm 4 mps 738 mmHg 93%
    04:00 +3°C° 0 mm 4 mps 739 mmHg 93%
    05:00 +3°C° 0 mm 4 mps 739 mmHg 94%
    06:00 +2°C° 0 mm 5 mps 739 mmHg 94%
    07:00 +3°C° 0 mm 5 mps 739 mmHg 93%
    08:00 +3°C° 0 mm 5 mps 740 mmHg 93%
    09:00 +3°C° 0 mm 5 mps 740 mmHg 91%
    10:00 +5°C° 0 mm 5 mps 740 mmHg 88%
    11:00 +6°C° 0 mm 5 mps 741 mmHg 86%
    12:00 +6°C° 0 mm 5 mps 741 mmHg 83%
    13:00 +7°C° 0 mm 5 mps 741 mmHg 80%
    14:00 +7°C° 0 mm 5 mps 741 mmHg 77%
    15:00 +7°C° 0 mm 4 mps 740 mmHg 77%
    16:00 +8°C° 0 mm 3 mps 740 mmHg 77%
    17:00 +7°C° 0 mm 3 mps 740 mmHg 77%
    18:00 +7°C° 0 mm 3 mps 740 mmHg 79%
    19:00 +5°C° 0 mm 3 mps 740 mmHg 81%
    20:00 +5°C° 0 mm 3 mps 741 mmHg 84%
    21:00 +5°C° 0 mm 3 mps 740 mmHg 86%
    22:00 +5°C° 0 mm 3 mps 740 mmHg 88%
    23:00 +4°C° 0 mm 3 mps 740 mmHg 89%

    27 October, Saturday

    Time Temperature Precipitation Wind Pressure Humidity
    00:00 +5°C° 0 mm 3 mps 740 mmHg 90%
    01:00 +5°C° 0 mm 4 mps 739 mmHg 90%
    02:00 +5°C° 0 mm 4 mps 739 mmHg 91%
    03:00 +6°C° 0 mm 4 mps 738 mmHg 90%
    04:00 +6°C° 0 mm 5 mps 738 mmHg 88%
    05:00 +6°C° 0 mm 5 mps 737 mmHg 87%
    06:00 +6°C° 0 mm 5 mps 737 mmHg 88%
    07:00 +6°C° 0 mm 5 mps 737 mmHg 89%
    08:00 +7°C° 0 mm 5 mps 737 mmHg 90%
    09:00 +8°C° 0 mm 5 mps 737 mmHg 86%
    10:00 +9°C° 0 mm 5 mps 737 mmHg 83%
    11:00 +10°C° 0 mm 5 mps 737 mmHg 79%
    12:00 +11°C° 0 mm 4 mps 737 mmHg 76%
    13:00 +12°C° 0 mm 4 mps 736 mmHg 73%
    14:00 +12°C° 0 mm 4 mps 736 mmHg 70%
    15:00 +11°C° 0.1 mm 3 mps 736 mmHg 73%
    16:00 +11°C° 0.1 mm 3 mps 736 mmHg 76%
    17:00 +10°C° 0.1 mm 2 mps 737 mmHg 79%
    18:00 +9°C° 0.4 mm 2 mps 737 mmHg 81%
    19:00 +9°C° 0.4 mm 2 mps 737 mmHg 83%
    20:00 +8°C° 0.4 mm 2 mps 737 mmHg 85%
    21:00 +8°C° 0.1 mm 2 mps 737 mmHg 83%
    22:00 +8°C° 0.1 mm 2 mps 737 mmHg 81%
    23:00 +7°C° 0.1 mm 2 mps 737 mmHg 79%

    28 October, Sunday

    Time Temperature Precipitation Wind Pressure Humidity
    00:00 +7°C° 0.1 mm 2 mps 737 mmHg 78%
    01:00 +7°C° 0.1 mm 2 mps 737 mmHg 78%
    02:00 +7°C° 0.1 mm 2 mps 737 mmHg 77%
    03:00 +6°C° 0.3 mm 2 mps 737 mmHg 78%
    04:00 +6°C° 0.3 mm 2 mps 736 mmHg 78%
    05:00 +6°C° 0.3 mm 2 mps 736 mmHg 79%
    06:00 +6°C° 1 mm 2 mps 736 mmHg 81%
    07:00 +5°C° 1 mm 2 mps 735 mmHg 83%
    08:00 +5°C° 1 mm 2 mps 735 mmHg 85%
    09:00 +5°C° 0.6 mm 2 mps 735 mmHg 83%
    10:00 +4°C° 0.6 mm 3 mps 735 mmHg 81%
    11:00 +5°C° 0.6 mm 3 mps 735 mmHg 80%
    12:00 +5°C° 0.1 mm 3 mps 735 mmHg 80%
    13:00 +5°C° 0.1 mm 3 mps 736 mmHg 81%
    14:00 +4°C° 0.1 mm 4 mps 736 mmHg 81%
    15:00 +4°C° 0 mm 3 mps 737 mmHg 81%
    16:00 +4°C° 0 mm 3 mps 738 mmHg 80%
    17:00 +4°C° 0 mm 3 mps 739 mmHg 80%
    18:00 +4°C° 0 mm 3 mps 740 mmHg 81%
    19:00 +4°C° 0 mm 4 mps 740 mmHg 82%
    20:00 +3°C° 0 mm 4 mps 741 mmHg 83%
    21:00 +3°C° 0 mm 4 mps 742 mmHg 83%
    22:00 +3°C° 0 mm 4 mps 743 mmHg 84%
    23:00 +1°C° 0 mm 4 mps 743 mmHg 84%

    29 October, Monday

    Time Temperature Precipitation Wind Pressure Humidity
    00:00 +1°C° 0 mm 4 mps 744 mmHg 85%
    01:00 +2°C° 0 mm 3 mps 744 mmHg 86%
    02:00 +1°C° 0 mm 3 mps 745 mmHg 88%
    03:00 +1°C° 0 mm 3 mps 745 mmHg 88%
    04:00 +1°C° 0 mm 3 mps 745 mmHg 88%
    05:00 0°C° 0 mm 3 mps 745 mmHg 89%
    06:00 0°C° 0 mm 3 mps 746 mmHg 89%
    07:00 0°C° 0 mm 3 mps 746 mmHg 89%
    08:00 +1°C° 0 mm 3 mps 747 mmHg 89%
    09:00 +2°C° 0 mm 3 mps 747 mmHg 83%
    10:00 +3°C° 0 mm 3 mps 747 mmHg 78%
    11:00 +4°C° 0 mm 3 mps 748 mmHg 73%
    12:00 +6°C° 0 mm 2 mps 748 mmHg 70%
    13:00 +7°C° 0 mm 1 mps 748 mmHg 67%
    14:00 +8°C° 0 mm 1 mps 747 mmHg 65%
    15:00 +7°C° 0 mm 1 mps 747 mmHg 68%
    16:00 +6°C° 0 mm 2 mps 747 mmHg 72%
    17:00 +5°C° 0 mm 2 mps 747 mmHg 75%
    18:00 +5°C° 0 mm 2 mps 747 mmHg 76%
    19:00 +4°C° 0 mm 3 mps 747 mmHg 77%
    20:00 +3°C° 0 mm 3 mps 747 mmHg 78%
    21:00 +4°C° 0 mm 3 mps 746 mmHg 78%
    22:00 +4°C° 0 mm 3 mps 746 mmHg 78%
    23:00 +4°C° 0 mm 3 mps 746 mmHg 78%
    Show more